Location: Songkhla
(7.2000°N, 100.6000°E)
Time: 19:37:10
(UTC+07:00)

YAOGAN 1 - Pass Details

Date: 16 April 2026
Orbit: 604 x 606 km, 97.7° (Epoch: 20 May)

Event Time Altitude Azimuth Distance (km) Brightness Sun altitude
Rises 18:39:39 0° 154° (SSE) 2,854 5.6 -4.1°
Reaches altitude 10° 18:41:56 10° 146° (SE) 1,950 4.7 -4.7°
Maximum altitude 18:45:52 37° 78° (ENE) 936 3.1 -5.7°
Drops below altitude 10° 18:49:47 10° 10° (N) 1,946 5.1 -6.6°
Sets 18:52:03 0° 2° (N) 2,848 6.1 -7.2°
